owner,sensor,date,latitude,longitude,vertical_datum,wind_speed,wind_to_direction,wind_speed_of_gust,qcFlag 
TCOON,ioos:station:TCOON:009:1,2015-07-01T00:00:00Z,27.8398,-97.0727,0.0,1.2,79.0,2.2,'11111222,11111222,11111222' 
TCOON,ioos:station:TCOON:009:1,2015-07-01T00:06:00Z,27.8398,-97.0727,0.0,1.0,74.0,1.8,'11111222,11111222,11111222' 
TCOON,ioos:station:TCOON:009:1,2015-07-01T00:12:00Z,27.8398,-97.0727,0.0,1.0,74.0,1.8,'1111122,1111122,1111122' 
TCOON,ioos:station:TCOON:009:1,2015-07-01T00:18:00Z,27.8398,-97.0727,0.0,1.1,131.0,1.9,'11111222,11111222,11111222' 
TCOON,ioos:station:TCOON:009:1,2015-07-01T00:24:00Z,27.8398,-97.0727,0.0,2.2,161.0,3.2,'11111222,11111222,11111222' 
TCOON,ioos:station:TCOON:009:1,2015-07-01T00:30:00Z,27.8398,-97.0727,0.0,2.3,130.0,3.2,'11111222,11111222,11111222' 
TCOON,ioos:station:TCOON:009:1,2015-07-01T00:36:00Z,27.8398,-97.0727,0.0,2.7,138.0,3.6,'11111222,11111222,11111222' 
TCOON,ioos:station:TCOON:009:1,2015-07-01T00:42:00Z,27.8398,-97.0727,0.0,2.6,144.0,3.6,'11111222,11111222,11111222' 
TCOON,ioos:station:TCOON:009:1,2015-07-01T00:48:00Z,27.8398,-97.0727,0.0,1.4,137.0,3.7,'11111222,11111222,11111222' 
TCOON,ioos:station:TCOON:009:1,2015-07-01T00:54:00Z,27.8398,-97.0727,0.0,1.9,136.0,2.9,'11111222,11111222,11111222' 
TCOON,ioos:station:TCOON:009:1,2015-07-01T01:00:00Z,27.8398,-97.0727,0.0,1.5,119.0,2.5,'11111222,11111222,11111222' 
TCOON,ioos:station:TCOON:009:1,2015-07-01T01:06:00Z,27.8398,-97.0727,0.0,1.4,121.0,2.2,'11111222,11111222,11111222' 
TCOON,ioos:station:TCOON:009:1,2015-07-01T01:12:00Z,27.8398,-97.0727,0.0,1.4,121.0,2.2,'1111122,1111122,1111122' 
TCOON,ioos:station:TCOON:009:1,2015-07-01T01:18:00Z,27.8398,-97.0727,0.0,1.6,103.0,2.9,'11111222,11111222,11111222' 
TCOON,ioos:station:TCOON:009:1,2015-07-01T01:24:00Z,27.8398,-97.0727,0.0,1.6,94.0,2.8,'11111222,11111222,11111222' 
TCOON,ioos:station:TCOON:009:1,2015-07-01T01:30:00Z,27.8398,-97.0727,0.0,1.5,100.0,2.9,'11111222,11111222,11111222' 
TCOON,ioos:station:TCOON:009:1,2015-07-01T01:36:00Z,27.8398,-97.0727,0.0,1.1,106.0,2.1,'11111222,11111222,11111222' 
TCOON,ioos:station:TCOON:009:1,2015-07-01T01:42:00Z,27.8398,-97.0727,0.0,1.0,78.0,1.5,'11111222,11111222,11111222' 
TCOON,ioos:station:TCOON:009:1,2015-07-01T01:48:00Z,27.8398,-97.0727,0.0,1.7,104.0,2.2,'11111222,11111222,11111222' 
TCOON,ioos:station:TCOON:009:1,2015-07-01T01:54:00Z,27.8398,-97.0727,0.0,2.2,86.0,3.0,'11111222,11111222,11111222' 
TCOON,ioos:station:TCOON:009:1,2015-07-01T02:00:00Z,27.8398,-97.0727,0.0,2.5,102.0,3.2,'11111222,11111222,11111222' 
TCOON,ioos:station:TCOON:009:1,2015-07-01T02:06:00Z,27.8398,-97.0727,0.0,2.4,108.0,3.6,'11111222,11111222,11111222' 
TCOON,ioos:station:TCOON:009:1,2015-07-01T02:12:00Z,27.8398,-97.0727,0.0,2.4,108.0,3.6,'1111122,1111122,1111122' 
TCOON,ioos:station:TCOON:009:1,2015-07-01T02:18:00Z,27.8398,-97.0727,0.0,3.1,103.0,4.8,'11111222,11111222,11111222' 
TCOON,ioos:station:TCOON:009:1,2015-07-01T02:24:00Z,27.8398,-97.0727,0.0,3.7,111.0,5.2,'11111222,11111222,11111222' 
TCOON,ioos:station:TCOON:009:1,2015-07-01T02:30:00Z,27.8398,-97.0727,0.0,3.4,111.0,5.4,'11111222,11111222,11111222' 
TCOON,ioos:station:TCOON:009:1,2015-07-01T02:36:00Z,27.8398,-97.0727,0.0,3.5,115.0,5.0,'11111222,11111222,11111222' 
TCOON,ioos:station:TCOON:009:1,2015-07-01T02:42:00Z,27.8398,-97.0727,0.0,3.2,117.0,5.5,'11111222,11111222,11111222' 
TCOON,ioos:station:TCOON:009:1,2015-07-01T02:48:00Z,27.8398,-97.0727,0.0,2.5,109.0,3.7,'11111222,11111222,11111222' 
TCOON,ioos:station:TCOON:009:1,2015-07-01T02:54:00Z,27.8398,-97.0727,0.0,3.0,107.0,4.2,'11111222,11111222,11111222' 
TCOON,ioos:station:TCOON:009:1,2015-07-01T03:00:00Z,27.8398,-97.0727,0.0,2.9,110.0,3.9,'11111222,11111222,11111222' 
TCOON,ioos:station:TCOON:009:1,2015-07-01T03:06:00Z,27.8398,-97.0727,0.0,3.1,108.0,3.9,'11111222,11111222,11111222' 
TCOON,ioos:station:TCOON:009:1,2015-07-01T03:12:00Z,27.8398,-97.0727,0.0,3.1,108.0,3.9,'1111122,1111122,1111122' 
TCOON,ioos:station:TCOON:009:1,2015-07-01T03:18:00Z,27.8398,-97.0727,0.0,2.7,101.0,3.8,'11111222,11111222,11111222' 
TCOON,ioos:station:TCOON:009:1,2015-07-01T03:24:00Z,27.8398,-97.0727,0.0,1.9,97.0,3.1,'11111222,11111222,11111222' 
TCOON,ioos:station:TCOON:009:1,2015-07-01T03:30:00Z,27.8398,-97.0727,0.0,2.2,88.0,3.4,'11111222,11111222,11111222' 
TCOON,ioos:station:TCOON:009:1,2015-07-01T03:36:00Z,27.8398,-97.0727,0.0,2.2,96.0,3.0,'11111222,11111222,11111222' 
TCOON,ioos:station:TCOON:009:1,2015-07-01T03:42:00Z,27.8398,-97.0727,0.0,2.5,106.0,3.6,'11111222,11111222,11111222' 
TCOON,ioos:station:TCOON:009:1,2015-07-01T03:48:00Z,27.8398,-97.0727,0.0,2.5,109.0,3.7,'11111222,11111222,11111222' 
TCOON,ioos:station:TCOON:009:1,2015-07-01T03:54:00Z,27.8398,-97.0727,0.0,2.1,109.0,3.5,'11111222,11111222,11111222' 
TCOON,ioos:station:TCOON:009:1,2015-07-01T04:00:00Z,27.8398,-97.0727,0.0,1.9,98.0,2.9,'11111222,11111222,11111222' 
TCOON,ioos:station:TCOON:009:1,2015-07-01T04:06:00Z,27.8398,-97.0727,0.0,2.6,103.0,3.2,'11111222,11111222,11111222' 
TCOON,ioos:station:TCOON:009:1,2015-07-01T04:12:00Z,27.8398,-97.0727,0.0,2.6,103.0,3.2,'1111122,1111122,1111122' 
TCOON,ioos:station:TCOON:009:1,2015-07-01T04:18:00Z,27.8398,-97.0727,0.0,2.1,110.0,3.5,'11111222,11111222,11111222' 
TCOON,ioos:station:TCOON:009:1,2015-07-01T04:24:00Z,27.8398,-97.0727,0.0,2.0,110.0,3.2,'11111222,11111222,11111222' 
TCOON,ioos:station:TCOON:009:1,2015-07-01T04:30:00Z,27.8398,-97.0727,0.0,1.8,111.0,2.9,'11111222,11111222,11111222' 
TCOON,ioos:station:TCOON:009:1,2015-07-01T04:36:00Z,27.8398,-97.0727,0.0,2.1,123.0,3.2,'11111222,11111222,11111222' 
TCOON,ioos:station:TCOON:009:1,2015-07-01T04:42:00Z,27.8398,-97.0727,0.0,2.2,119.0,3.0,'11111222,11111222,11111222' 
TCOON,ioos:station:TCOON:009:1,2015-07-01T04:48:00Z,27.8398,-97.0727,0.0,1.8,130.0,2.6,'11111222,11111222,11111222' 
TCOON,ioos:station:TCOON:009:1,2015-07-01T04:54:00Z,27.8398,-97.0727,0.0,1.8,126.0,2.6,'11111222,11111222,11111222' 
TCOON,ioos:station:TCOON:009:1,2015-07-01T05:00:00Z,27.8398,-97.0727,0.0,1.7,125.0,2.7,'11111222,11111222,11111222' 
TCOON,ioos:station:TCOON:009:1,2015-07-01T05:06:00Z,27.8398,-97.0727,0.0,1.8,127.0,2.8,'11111222,11111222,11111222' 
TCOON,ioos:station:TCOON:009:1,2015-07-01T05:12:00Z,27.8398,-97.0727,0.0,1.8,127.0,2.8,'1111122,1111122,1111122' 
TCOON,ioos:station:TCOON:009:1,2015-07-01T05:18:00Z,27.8398,-97.0727,0.0,2.2,127.0,3.4,'11111222,11111222,11111222' 
TCOON,ioos:station:TCOON:009:1,2015-07-01T05:24:00Z,27.8398,-97.0727,0.0,2.2,121.0,3.6,'11111222,11111222,11111222' 
TCOON,ioos:station:TCOON:009:1,2015-07-01T05:30:00Z,27.8398,-97.0727,0.0,2.4,114.0,3.2,'11111222,11111222,11111222' 
TCOON,ioos:station:TCOON:009:1,2015-07-01T05:36:00Z,27.8398,-97.0727,0.0,2.0,113.0,3.0,'11111222,11111222,11111222' 
TCOON,ioos:station:TCOON:009:1,2015-07-01T05:42:00Z,27.8398,-97.0727,0.0,2.4,116.0,3.5,'11111222,11111222,11111222' 
TCOON,ioos:station:TCOON:009:1,2015-07-01T05:48:00Z,27.8398,-97.0727,0.0,2.5,119.0,3.5,'11111222,11111222,11111222' 
TCOON,ioos:station:TCOON:009:1,2015-07-01T05:54:00Z,27.8398,-97.0727,0.0,2.2,121.0,3.4,'11111222,11111222,11111222' 
TCOON,ioos:station:TCOON:009:1,2015-07-01T06:00:00Z,27.8398,-97.0727,0.0,2.2,115.0,3.3,'11111222,11111222,11111222' 
TCOON,ioos:station:TCOON:009:1,2015-07-01T06:06:00Z,27.8398,-97.0727,0.0,2.5,117.0,4.0,'11111222,11111222,11111222' 
TCOON,ioos:station:TCOON:009:1,2015-07-01T06:12:00Z,27.8398,-97.0727,0.0,2.2,102.0,3.3,'11111222,11111222,11111222' 
TCOON,ioos:station:TCOON:009:1,2015-07-01T06:18:00Z,27.8398,-97.0727,0.0,2.2,102.0,3.3,'1111122,1111122,1111122' 
TCOON,ioos:station:TCOON:009:1,2015-07-01T06:24:00Z,27.8398,-97.0727,0.0,2.5,109.0,4.1,'11111222,11111222,11111222' 
TCOON,ioos:station:TCOON:009:1,2015-07-01T06:30:00Z,27.8398,-97.0727,0.0,2.9,115.0,4.4,'11111222,11111222,11111222' 
TCOON,ioos:station:TCOON:009:1,2015-07-01T06:36:00Z,27.8398,-97.0727,0.0,99.0,-9999.0,99.0,'11144222,99999999,11144222' 
TCOON,ioos:station:TCOON:009:1,2015-07-01T06:42:00Z,27.8398,-97.0727,0.0,99.0,-9999.0,99.0,'11144222,99999999,11144222' 
TCOON,ioos:station:TCOON:009:1,2015-07-01T06:48:00Z,27.8398,-97.0727,0.0,99.0,-9999.0,99.0,'11144222,99999999,11144222' 
TCOON,ioos:station:TCOON:009:1,2015-07-01T06:54:00Z,27.8398,-97.0727,0.0,2.5,104.0,3.6,'11111222,11111222,11111222' 
TCOON,ioos:station:TCOON:009:1,2015-07-01T07:00:00Z,27.8398,-97.0727,0.0,2.3,100.0,3.3,'11111222,11111222,11111222' 
TCOON,ioos:station:TCOON:009:1,2015-07-01T07:06:00Z,27.8398,-97.0727,0.0,2.5,104.0,3.5,'11111222,11111222,11111222' 
TCOON,ioos:station:TCOON:009:1,2015-07-01T07:12:00Z,27.8398,-97.0727,0.0,2.3,103.0,3.3,'11111222,11111222,11111222' 
TCOON,ioos:station:TCOON:009:1,2015-07-01T07:18:00Z,27.8398,-97.0727,0.0,2.3,112.0,3.9,'11111222,11111222,11111222' 
TCOON,ioos:station:TCOON:009:1,2015-07-01T07:24:00Z,27.8398,-97.0727,0.0,2.3,123.0,3.2,'11111222,11111222,11111222' 
TCOON,ioos:station:TCOON:009:1,2015-07-01T07:30:00Z,27.8398,-97.0727,0.0,2.3,123.0,3.2,'1111122,1111122,1111122' 
TCOON,ioos:station:TCOON:009:1,2015-07-01T07:36:00Z,27.8398,-97.0727,0.0,3.0,125.0,4.7,'11111222,11111222,11111222' 
TCOON,ioos:station:TCOON:009:1,2015-07-01T07:42:00Z,27.8398,-97.0727,0.0,3.2,133.0,5.5,'11111222,11111222,11111222' 
TCOON,ioos:station:TCOON:009:1,2015-07-01T07:48:00Z,27.8398,-97.0727,0.0,2.7,129.0,5.3,'11111222,11111222,11111222' 
TCOON,ioos:station:TCOON:009:1,2015-07-01T07:54:00Z,27.8398,-97.0727,0.0,2.9,127.0,4.9,'11111222,11111222,11111222' 
TCOON,ioos:station:TCOON:009:1,2015-07-01T08:00:00Z,27.8398,-97.0727,0.0,2.8,126.0,4.9,'11111222,11111222,11111222' 
TCOON,ioos:station:TCOON:009:1,2015-07-01T08:06:00Z,27.8398,-97.0727,0.0,2.2,130.0,4.6,'11111222,11111222,11111222' 
TCOON,ioos:station:TCOON:009:1,2015-07-01T08:12:00Z,27.8398,-97.0727,0.0,2.8,131.0,4.7,'11111222,11111222,11111222' 
TCOON,ioos:station:TCOON:009:1,2015-07-01T08:18:00Z,27.8398,-97.0727,0.0,2.8,131.0,4.7,'1111122,1111122,1111122' 
TCOON,ioos:station:TCOON:009:1,2015-07-01T08:24:00Z,27.8398,-97.0727,0.0,2.9,129.0,5.3,'11111222,11111222,11111222' 
TCOON,ioos:station:TCOON:009:1,2015-07-01T08:30:00Z,27.8398,-97.0727,0.0,3.4,128.0,5.2,'11111222,11111222,11111222' 
TCOON,ioos:station:TCOON:009:1,2015-07-01T08:36:00Z,27.8398,-97.0727,0.0,3.2,132.0,4.2,'11111222,11111222,11111222' 
TCOON,ioos:station:TCOON:009:1,2015-07-01T08:42:00Z,27.8398,-97.0727,0.0,2.7,137.0,5.5,'11111222,11111222,11111222' 
TCOON,ioos:station:TCOON:009:1,2015-07-01T08:48:00Z,27.8398,-97.0727,0.0,3.2,141.0,6.0,'11111222,11111222,11111222' 
TCOON,ioos:station:TCOON:009:1,2015-07-01T08:54:00Z,27.8398,-97.0727,0.0,3.1,141.0,7.0,'11111222,11111222,11111222' 
TCOON,ioos:station:TCOON:009:1,2015-07-01T09:00:00Z,27.8398,-97.0727,0.0,2.8,145.0,5.5,'11111222,11111222,11111222' 
TCOON,ioos:station:TCOON:009:1,2015-07-01T09:06:00Z,27.8398,-97.0727,0.0,3.5,143.0,5.3,'11111222,11111222,11111222' 
TCOON,ioos:station:TCOON:009:1,2015-07-01T09:12:00Z,27.8398,-97.0727,0.0,3.5,143.0,5.3,'1111122,1111122,1111122' 
TCOON,ioos:station:TCOON:009:1,2015-07-01T09:18:00Z,27.8398,-97.0727,0.0,3.3,146.0,5.1,'11111222,11111222,11111222' 
TCOON,ioos:station:TCOON:009:1,2015-07-01T09:24:00Z,27.8398,-97.0727,0.0,2.6,138.0,4.6,'11111222,11111222,11111222' 
TCOON,ioos:station:TCOON:009:1,2015-07-01T09:30:00Z,27.8398,-97.0727,0.0,2.4,137.0,4.6,'11111222,11111222,11111222' 
TCOON,ioos:station:TCOON:009:1,2015-07-01T09:36:00Z,27.8398,-97.0727,0.0,2.4,129.0,3.5,'11111222,11111222,11111222' 
TCOON,ioos:station:TCOON:009:1,2015-07-01T09:42:00Z,27.8398,-97.0727,0.0,2.4,143.0,4.1,'11111222,11111222,11111222' 
TCOON,ioos:station:TCOON:009:1,2015-07-01T09:48:00Z,27.8398,-97.0727,0.0,2.5,142.0,4.7,'11111222,11111222,11111222' 
TCOON,ioos:station:TCOON:009:1,2015-07-01T09:54:00Z,27.8398,-97.0727,0.0,3.2,134.0,4.8,'11111222,11111222,11111222' 
TCOON,ioos:station:TCOON:009:1,2015-07-01T10:00:00Z,27.8398,-97.0727,0.0,2.5,148.0,4.1,'11111222,11111222,11111222' 
TCOON,ioos:station:TCOON:009:1,2015-07-01T10:06:00Z,27.8398,-97.0727,0.0,2.1,144.0,3.6,'11111222,11111222,11111222' 
TCOON,ioos:station:TCOON:009:1,2015-07-01T10:12:00Z,27.8398,-97.0727,0.0,2.1,144.0,3.6,'1111122,1111122,1111122' 
TCOON,ioos:station:TCOON:009:1,2015-07-01T10:18:00Z,27.8398,-97.0727,0.0,2.1,131.0,3.0,'11111222,11111222,11111222' 
TCOON,ioos:station:TCOON:009:1,2015-07-01T10:24:00Z,27.8398,-97.0727,0.0,1.6,134.0,2.7,'11111222,11111222,11111222' 
TCOON,ioos:station:TCOON:009:1,2015-07-01T10:30:00Z,27.8398,-97.0727,0.0,2.0,138.0,3.4,'11111222,11111222,11111222' 
TCOON,ioos:station:TCOON:009:1,2015-07-01T10:36:00Z,27.8398,-97.0727,0.0,1.7,138.0,2.9,'11111222,11111222,11111222' 
TCOON,ioos:station:TCOON:009:1,2015-07-01T10:42:00Z,27.8398,-97.0727,0.0,1.8,130.0,2.8,'11111222,11111222,11111222' 
TCOON,ioos:station:TCOON:009:1,2015-07-01T10:48:00Z,27.8398,-97.0727,0.0,2.2,133.0,3.8,'11111222,11111222,11111222' 
TCOON,ioos:station:TCOON:009:1,2015-07-01T10:54:00Z,27.8398,-97.0727,0.0,2.7,131.0,4.0,'11111222,11111222,11111222' 
TCOON,ioos:station:TCOON:009:1,2015-07-01T11:00:00Z,27.8398,-97.0727,0.0,2.5,137.0,4.2,'11111222,11111222,11111222' 
TCOON,ioos:station:TCOON:009:1,2015-07-01T11:06:00Z,27.8398,-97.0727,0.0,2.7,124.0,4.7,'11111222,11111222,11111222' 
TCOON,ioos:station:TCOON:009:1,2015-07-01T11:12:00Z,27.8398,-97.0727,0.0,2.7,124.0,4.7,'1111122,1111122,1111122' 
TCOON,ioos:station:TCOON:009:1,2015-07-01T11:18:00Z,27.8398,-97.0727,0.0,3.3,136.0,5.9,'11111222,11111222,11111222' 
TCOON,ioos:station:TCOON:009:1,2015-07-01T11:24:00Z,27.8398,-97.0727,0.0,3.2,137.0,5.5,'11111222,11111222,11111222' 
TCOON,ioos:station:TCOON:009:1,2015-07-01T11:30:00Z,27.8398,-97.0727,0.0,2.7,136.0,5.1,'11111222,11111222,11111222' 
TCOON,ioos:station:TCOON:009:1,2015-07-01T11:36:00Z,27.8398,-97.0727,0.0,2.9,126.0,5.0,'11111222,11111222,11111222' 
TCOON,ioos:station:TCOON:009:1,2015-07-01T11:42:00Z,27.8398,-97.0727,0.0,3.2,130.0,5.0,'11111222,11111222,11111222' 
TCOON,ioos:station:TCOON:009:1,2015-07-01T11:48:00Z,27.8398,-97.0727,0.0,2.4,121.0,4.8,'11111222,11111222,11111222' 
TCOON,ioos:station:TCOON:009:1,2015-07-01T11:54:00Z,27.8398,-97.0727,0.0,2.8,114.0,3.7,'11111222,11111222,11111222' 
TCOON,ioos:station:TCOON:009:1,2015-07-01T12:00:00Z,27.8398,-97.0727,0.0,2.8,121.0,4.4,'11111222,11111222,11111222' 
TCOON,ioos:station:TCOON:009:1,2015-07-01T12:06:00Z,27.8398,-97.0727,0.0,3.1,112.0,4.3,'11111222,11111222,11111222' 
TCOON,ioos:station:TCOON:009:1,2015-07-01T12:12:00Z,27.8398,-97.0727,0.0,3.1,112.0,4.3,'1111122,1111122,1111122' 
TCOON,ioos:station:TCOON:009:1,2015-07-01T12:18:00Z,27.8398,-97.0727,0.0,2.2,106.0,3.7,'11111222,11111222,11111222' 
TCOON,ioos:station:TCOON:009:1,2015-07-01T12:24:00Z,27.8398,-97.0727,0.0,1.9,100.0,3.3,'11111222,11111222,11111222' 
TCOON,ioos:station:TCOON:009:1,2015-07-01T12:30:00Z,27.8398,-97.0727,0.0,1.7,102.0,2.3,'11111222,11111222,11111222' 
TCOON,ioos:station:TCOON:009:1,2015-07-01T12:36:00Z,27.8398,-97.0727,0.0,2.2,114.0,2.9,'11111222,11111222,11111222' 
TCOON,ioos:station:TCOON:009:1,2015-07-01T12:42:00Z,27.8398,-97.0727,0.0,1.7,132.0,3.0,'11111222,11111222,11111222' 
TCOON,ioos:station:TCOON:009:1,2015-07-01T12:48:00Z,27.8398,-97.0727,0.0,2.9,139.0,4.2,'11111222,11111222,11111222' 
TCOON,ioos:station:TCOON:009:1,2015-07-01T12:54:00Z,27.8398,-97.0727,0.0,2.9,130.0,4.9,'11111222,11111222,11111222' 
TCOON,ioos:station:TCOON:009:1,2015-07-01T13:00:00Z,27.8398,-97.0727,0.0,3.0,139.0,4.4,'11111222,11111222,11111222' 
TCOON,ioos:station:TCOON:009:1,2015-07-01T13:06:00Z,27.8398,-97.0727,0.0,2.6,138.0,3.8,'11111222,11111222,11111222' 
TCOON,ioos:station:TCOON:009:1,2015-07-01T13:12:00Z,27.8398,-97.0727,0.0,2.6,138.0,3.8,'1111122,1111122,1111122' 
TCOON,ioos:station:TCOON:009:1,2015-07-01T13:18:00Z,27.8398,-97.0727,0.0,3.5,130.0,5.0,'11111222,11111222,11111222' 
TCOON,ioos:station:TCOON:009:1,2015-07-01T13:24:00Z,27.8398,-97.0727,0.0,3.1,134.0,5.6,'11111222,11111222,11111222' 
TCOON,ioos:station:TCOON:009:1,2015-07-01T13:30:00Z,27.8398,-97.0727,0.0,3.1,136.0,4.9,'11111222,11111222,11111222' 
TCOON,ioos:station:TCOON:009:1,2015-07-01T13:36:00Z,27.8398,-97.0727,0.0,2.8,127.0,4.7,'11111222,11111222,11111222' 
TCOON,ioos:station:TCOON:009:1,2015-07-01T13:42:00Z,27.8398,-97.0727,0.0,3.2,117.0,4.4,'11111222,11111222,11111222' 
TCOON,ioos:station:TCOON:009:1,2015-07-01T13:48:00Z,27.8398,-97.0727,0.0,2.7,114.0,4.6,'11111222,11111222,11111222' 
TCOON,ioos:station:TCOON:009:1,2015-07-01T13:54:00Z,27.8398,-97.0727,0.0,3.5,108.0,4.6,'11111222,11111222,11111222' 
TCOON,ioos:station:TCOON:009:1,2015-07-01T14:00:00Z,27.8398,-97.0727,0.0,3.4,118.0,5.4,'11111222,11111222,11111222' 
TCOON,ioos:station:TCOON:009:1,2015-07-01T14:06:00Z,27.8398,-97.0727,0.0,3.3,105.0,4.4,'11111222,11111222,11111222' 
TCOON,ioos:station:TCOON:009:1,2015-07-01T14:12:00Z,27.8398,-97.0727,0.0,2.8,105.0,5.0,'11111222,11111222,11111222' 
TCOON,ioos:station:TCOON:009:1,2015-07-01T14:18:00Z,27.8398,-97.0727,0.0,2.8,105.0,5.0,'1111122,1111122,1111122' 
TCOON,ioos:station:TCOON:009:1,2015-07-01T14:24:00Z,27.8398,-97.0727,0.0,4.0,122.0,5.6,'11111222,11111222,11111222' 
TCOON,ioos:station:TCOON:009:1,2015-07-01T14:30:00Z,27.8398,-97.0727,0.0,4.5,121.0,6.1,'11111222,11111222,11111222' 
TCOON,ioos:station:TCOON:009:1,2015-07-01T14:36:00Z,27.8398,-97.0727,0.0,4.2,127.0,6.4,'11111222,11111222,11111222' 
TCOON,ioos:station:TCOON:009:1,2015-07-01T14:42:00Z,27.8398,-97.0727,0.0,3.9,124.0,5.8,'11111222,11111222,11111222' 
TCOON,ioos:station:TCOON:009:1,2015-07-01T14:48:00Z,27.8398,-97.0727,0.0,3.7,112.0,5.6,'11111222,11111222,11111222' 
TCOON,ioos:station:TCOON:009:1,2015-07-01T14:54:00Z,27.8398,-97.0727,0.0,3.9,139.0,5.6,'11111222,11111222,11111222' 
TCOON,ioos:station:TCOON:009:1,2015-07-01T15:00:00Z,27.8398,-97.0727,0.0,4.1,132.0,6.7,'11111222,11111222,11111222' 
TCOON,ioos:station:TCOON:009:1,2015-07-01T15:06:00Z,27.8398,-97.0727,0.0,3.4,135.0,5.6,'11111222,11111222,11111222' 
TCOON,ioos:station:TCOON:009:1,2015-07-01T15:12:00Z,27.8398,-97.0727,0.0,2.8,134.0,4.6,'11111222,11111222,11111222' 
TCOON,ioos:station:TCOON:009:1,2015-07-01T15:18:00Z,27.8398,-97.0727,0.0,2.8,134.0,4.6,'1111122,1111122,1111122' 
TCOON,ioos:station:TCOON:009:1,2015-07-01T15:24:00Z,27.8398,-97.0727,0.0,2.2,132.0,3.1,'11111222,11111222,11111222' 
TCOON,ioos:station:TCOON:009:1,2015-07-01T15:30:00Z,27.8398,-97.0727,0.0,1.8,157.0,3.4,'11111222,11111222,11111222' 
TCOON,ioos:station:TCOON:009:1,2015-07-01T15:36:00Z,27.8398,-97.0727,0.0,1.5,181.0,3.1,'11111222,11111222,11111222' 
TCOON,ioos:station:TCOON:009:1,2015-07-01T15:42:00Z,27.8398,-97.0727,0.0,1.8,211.0,2.8,'11111222,11111222,11111222' 
TCOON,ioos:station:TCOON:009:1,2015-07-01T15:48:00Z,27.8398,-97.0727,0.0,1.8,221.0,2.4,'11111222,11111222,11111222' 
TCOON,ioos:station:TCOON:009:1,2015-07-01T15:54:00Z,27.8398,-97.0727,0.0,4.1,227.0,6.4,'11111222,11111222,11111222' 
TCOON,ioos:station:TCOON:009:1,2015-07-01T16:00:00Z,27.8398,-97.0727,0.0,9.5,212.0,13.8,'11111222,11111222,11111222' 
TCOON,ioos:station:TCOON:009:1,2015-07-01T16:06:00Z,27.8398,-97.0727,0.0,6.6,198.0,13.2,'11111222,11111222,11111222' 
TCOON,ioos:station:TCOON:009:1,2015-07-01T16:12:00Z,27.8398,-97.0727,0.0,6.6,198.0,13.2,'1111122,1111122,1111122' 
TCOON,ioos:station:TCOON:009:1,2015-07-01T16:18:00Z,27.8398,-97.0727,0.0,7.7,199.0,11.4,'11111222,11111222,11111222' 
TCOON,ioos:station:TCOON:009:1,2015-07-01T16:24:00Z,27.8398,-97.0727,0.0,8.5,198.0,12.3,'11111222,11111222,11111222' 
TCOON,ioos:station:TCOON:009:1,2015-07-01T16:30:00Z,27.8398,-97.0727,0.0,9.3,203.0,13.8,'11111222,11111222,11111222' 
TCOON,ioos:station:TCOON:009:1,2015-07-01T16:36:00Z,27.8398,-97.0727,0.0,10.1,208.0,12.4,'11111222,11111222,11111222' 
TCOON,ioos:station:TCOON:009:1,2015-07-01T16:42:00Z,27.8398,-97.0727,0.0,9.1,204.0,14.1,'11111222,11111222,11111222' 
TCOON,ioos:station:TCOON:009:1,2015-07-01T16:48:00Z,27.8398,-97.0727,0.0,6.3,198.0,10.8,'11111222,11111222,11111222' 
TCOON,ioos:station:TCOON:009:1,2015-07-01T16:54:00Z,27.8398,-97.0727,0.0,7.8,203.0,11.4,'11111222,11111222,11111222' 
TCOON,ioos:station:TCOON:009:1,2015-07-01T17:00:00Z,27.8398,-97.0727,0.0,6.7,209.0,10.7,'11111222,11111222,11111222' 
TCOON,ioos:station:TCOON:009:1,2015-07-01T17:06:00Z,27.8398,-97.0727,0.0,6.9,206.0,10.3,'11111222,11111222,11111222' 
TCOON,ioos:station:TCOON:009:1,2015-07-01T17:12:00Z,27.8398,-97.0727,0.0,6.9,206.0,10.3,'1111122,1111122,1111122' 
TCOON,ioos:station:TCOON:009:1,2015-07-01T17:18:00Z,27.8398,-97.0727,0.0,7.6,205.0,10.4,'11111222,11111222,11111222' 
TCOON,ioos:station:TCOON:009:1,2015-07-01T17:24:00Z,27.8398,-97.0727,0.0,7.0,205.0,10.3,'11111222,11111222,11111222' 
TCOON,ioos:station:TCOON:009:1,2015-07-01T17:30:00Z,27.8398,-97.0727,0.0,7.4,208.0,9.8,'11111222,11111222,11111222' 
TCOON,ioos:station:TCOON:009:1,2015-07-01T17:36:00Z,27.8398,-97.0727,0.0,5.3,213.0,9.4,'11111222,11111222,11111222' 
TCOON,ioos:station:TCOON:009:1,2015-07-01T17:42:00Z,27.8398,-97.0727,0.0,5.2,218.0,8.8,'11111222,11111222,11111222' 
TCOON,ioos:station:TCOON:009:1,2015-07-01T17:48:00Z,27.8398,-97.0727,0.0,5.9,204.0,10.1,'11111222,11111222,11111222' 
TCOON,ioos:station:TCOON:009:1,2015-07-01T17:54:00Z,27.8398,-97.0727,0.0,4.0,218.0,8.1,'11111222,11111222,11111222' 
TCOON,ioos:station:TCOON:009:1,2015-07-01T18:00:00Z,27.8398,-97.0727,0.0,5.3,212.0,7.2,'11111222,11111222,11111222' 
TCOON,ioos:station:TCOON:009:1,2015-07-01T18:06:00Z,27.8398,-97.0727,0.0,5.5,213.0,8.4,'11111222,11111222,11111222' 
TCOON,ioos:station:TCOON:009:1,2015-07-01T18:12:00Z,27.8398,-97.0727,0.0,5.5,214.0,7.9,'11111222,11111222,11111222' 
TCOON,ioos:station:TCOON:009:1,2015-07-01T18:18:00Z,27.8398,-97.0727,0.0,5.5,214.0,7.9,'1111122,1111122,1111122' 
TCOON,ioos:station:TCOON:009:1,2015-07-01T18:24:00Z,27.8398,-97.0727,0.0,6.0,200.0,8.8,'11111222,11111222,11111222' 
TCOON,ioos:station:TCOON:009:1,2015-07-01T18:30:00Z,27.8398,-97.0727,0.0,4.9,197.0,7.2,'11111222,11111222,11111222' 
TCOON,ioos:station:TCOON:009:1,2015-07-01T18:36:00Z,27.8398,-97.0727,0.0,6.0,206.0,8.4,'11111222,11111222,11111222' 
TCOON,ioos:station:TCOON:009:1,2015-07-01T18:42:00Z,27.8398,-97.0727,0.0,7.2,204.0,10.0,'11111222,11111222,11111222' 
TCOON,ioos:station:TCOON:009:1,2015-07-01T18:48:00Z,27.8398,-97.0727,0.0,6.5,208.0,9.9,'11111222,11111222,11111222' 
TCOON,ioos:station:TCOON:009:1,2015-07-01T18:54:00Z,27.8398,-97.0727,0.0,5.1,205.0,9.0,'11111222,11111222,11111222' 
TCOON,ioos:station:TCOON:009:1,2015-07-01T19:00:00Z,27.8398,-97.0727,0.0,5.2,197.0,9.5,'11111222,11111222,11111222' 
TCOON,ioos:station:TCOON:009:1,2015-07-01T19:06:00Z,27.8398,-97.0727,0.0,5.4,191.0,7.6,'11111222,11111222,11111222' 
TCOON,ioos:station:TCOON:009:1,2015-07-01T19:12:00Z,27.8398,-97.0727,0.0,5.8,200.0,8.4,'11111222,11111222,11111222' 
TCOON,ioos:station:TCOON:009:1,2015-07-01T19:18:00Z,27.8398,-97.0727,0.0,5.8,200.0,8.4,'1111122,1111122,1111122' 
TCOON,ioos:station:TCOON:009:1,2015-07-01T19:24:00Z,27.8398,-97.0727,0.0,4.2,194.0,7.2,'11111222,11111222,11111222' 
TCOON,ioos:station:TCOON:009:1,2015-07-01T19:30:00Z,27.8398,-97.0727,0.0,4.1,196.0,6.3,'11111222,11111222,11111222' 
TCOON,ioos:station:TCOON:009:1,2015-07-01T19:36:00Z,27.8398,-97.0727,0.0,4.9,173.0,7.1,'11111222,11111222,11111222' 
TCOON,ioos:station:TCOON:009:1,2015-07-01T19:42:00Z,27.8398,-97.0727,0.0,4.8,176.0,8.1,'11111222,11111222,11111222' 
TCOON,ioos:station:TCOON:009:1,2015-07-01T19:48:00Z,27.8398,-97.0727,0.0,4.5,191.0,8.8,'11111222,11111222,11111222' 
TCOON,ioos:station:TCOON:009:1,2015-07-01T19:54:00Z,27.8398,-97.0727,0.0,5.2,185.0,8.4,'11111222,11111222,11111222' 
TCOON,ioos:station:TCOON:009:1,2015-07-01T20:00:00Z,27.8398,-97.0727,0.0,4.8,185.0,8.4,'11111222,11111222,11111222' 
TCOON,ioos:station:TCOON:009:1,2015-07-01T20:06:00Z,27.8398,-97.0727,0.0,5.3,190.0,7.8,'11111222,11111222,11111222' 
TCOON,ioos:station:TCOON:009:1,2015-07-01T20:12:00Z,27.8398,-97.0727,0.0,4.3,178.0,6.7,'11111222,11111222,11111222' 
TCOON,ioos:station:TCOON:009:1,2015-07-01T20:18:00Z,27.8398,-97.0727,0.0,4.3,178.0,6.7,'1111122,1111122,1111122' 